Regional Weather Roundup
Issued by NWS

Home | Current Version | Previous Version | Graphics & Text | Print | Product List | Glossary On
Versions: 1 2 3 4 5 6 7 8 9 10 11 12 13 14 15 16 17 18 19 20 21 22 23 24 25 26 27 28 29 30 31 32 33 34 35 36 37 38 39 40 41 42 43 44 45 46 47 48 49 50
000
ASUS43 KIND 192209
RWRIN

WEATHER ROUNDUP FOR INDIANA
NATIONAL WEATHER SERVICE INDIANAPOLIS IN
600 PM EDT THU OCT 19 2017

NOTE: "FAIR" INDICATES FEW OR NO CLOUDS BELOW 12,000 FEET WITH NO
SIGNIFICANT WEATHER AND/OR OBSTRUCTIONS TO VISIBILITY.

* - STATION DOES NOT REPORT WEATHER SUCH AS PRECIPITATION OR FOG.

+ - STATION NOT QUALITY CONTROLLED BY THE NATIONAL WEATHER SERVICE.
    USE DATA WITH CAUTION...ESPECIALLY DEWPOINT AND RELATIVE
    HUMIDITY OBSERVATIONS.

INZ001>003-010>013-019-020-192300-
NORTHWEST INDIANA

CITY           SKY/WX    TMP DP  RH WIND       PRES   REMARKS
GARY /AIRPORT/ PTSUNNY   64  34  32 VRB5      30.19S
KNOX *+        CLEAR     64  34  32 N3        30.18R
LA PORTE +     CLOUDY    61  39  43 N3        30.20R
MICHIGAN CITY+ CLOUDY    59  36  41 CALM      30.20R
MONTICELLO +   SUNNY     71  49  45 NW5       30.16S
RENSSELAER +   SUNNY     72  32  23 CALM      30.17S
VALPARAISO     CLOUDY    66  34  30 N5        30.19R

$$

LMZ046-743>745-192300-
SOUTHERN LAKE MICHIGAN

STATION/POSITION TIME  TEMP    WIND        PRES    WAVE
                       AIR SEA DIR/SP/G            HT
                 (UTC) (F)     (DEG/KT/KT) (MB)    (FT)
BURNS HARBOR     2140   61      60/  7/  8 1022.7S
MICHIGAN CITY    2140   59      40/  2/  3   N/A
5NW MICH CITY    2200   59 59  130/  2/  2   N/A     1

$$

INZ004-005-014>016-021>024-192300-
NORTH CENTRAL INDIANA

CITY           SKY/WX    TMP DP  RH WIND       PRES   REMARKS
ELKHART        CLOUDY    64  28  25 W6        30.18S
GOSHEN         CLOUDY    62  32  32 NW8       30.18R
LOGANSPORT +   CLEAR     72  50  46 CALM      30.18R
PERU/GRISSOM   CLEAR     71  51  48 W5        30.17R
SOUTH BEND     CLOUDY    62  35  36 W5        30.19R
WARSAW +       CLOUDY    66  36  32 NW5       30.18R

$$

INZ006>009-017-018-025>027-192300-
NORTHEAST INDIANA

CITY           SKY/WX    TMP DP  RH WIND       PRES   REMARKS
AUBURN +       CLOUDY    68  36  30 W5        30.17S
FORT WAYNE     CLOUDY    70  50  49 NW7       30.17R
HUNTINGTON +   CLOUDY    69  50  50 NW6       30.17S
KENDALLVILLE + CLOUDY    66  34  30 NW3       30.18R

$$

INZ028-029-035-036-043>045-051>053-192300-
WEST CENTRAL INDIANA

CITY           SKY/WX    TMP DP  RH WIND       PRES   REMARKS
CRAWFORDSVL +  SUNNY     70  52  52 SW6       30.18S
GREENCASTLE +  SUNNY     70  50  49 CALM      30.19S
LAFAYETTE      SUNNY     72  53  51 SW3       30.16S
TERRE HAUTE    SUNNY     73  51  46 S5        30.18S

$$

INZ030>032-037>040-046>048-054>057-064-065-192300-
CENTRAL INDIANA

CITY           SKY/WX    TMP DP  RH WIND       PRES   REMARKS
CP ATTERBURY + SUNNY     72  50  46 SW6       30.19S
COLUMBUS       CLEAR     73  41  31 SW8       30.19S
FISHERS *+     CLEAR     72  55  56 SW7       30.17
FRANKFORT +    PTSUNNY   75  53  46 W5        30.19S
GREENWOOD *+   CLEAR     76  52  42 W5        30.19S
INDIANAPOLIS   MOSUNNY   72  52  49 W9        30.18S
-EAGLE CREEK   SUNNY     73  50  44 W6        30.17S
KOKOMO +       CLEAR     71  52  50 W6        30.19R
MT COMFORT *+  CLEAR     72  55  56 W5        30.19S
SHELBYVILLE    CLEAR     74  48  39 SW6       30.18R
ZIONSVILLE +   CLEAR     71  51  47 W8        30.18S

$$

INZ033-034-041-042-049-050-058-059-192300-
EAST CENTRAL INDIANA

CITY           SKY/WX    TMP DP  RH WIND       PRES   REMARKS
MUNCIE         CLEAR     73  50  44 SW7       30.17S
RICHMOND +     CLEAR     70  48  46 W12       30.20S

$$

INZ060-061-067>069-081>083-085>088-192300-
SOUTHWEST INDIANA

CITY           SKY/WX    TMP DP  RH WIND       PRES   REMARKS
EVANSVILLE     SUNNY     75  50  41 SW7       30.19S
HUNTINGBURG +  SUNNY     73  53  49 MISG      30.20S
WASHINGTON +   SUNNY     75  46  35 S7        30.18S

$$

INZ062-063-066-070>080-084-089>092-192300-
SOUTH CENTRAL AND SOUTHEAST INDIANA

CITY           SKY/WX    TMP DP  RH WIND       PRES   REMARKS
BEDFORD +      SUNNY     73  48  40 SW5       30.19S
BLOOMINGTON    SUNNY     73  49  42 SW6       30.19S
MADISON *+     CLEAR     72  45  37 SW5       30.22S
NORTH VERNON + CLEAR     72  50  46 SW7       30.20S
SEYMOUR +      SUNNY     73  52  46 SW8       30.19S

$$




USA.gov is the U.S. government's official web portal to all federal, state and local government web resources and services.